Regional Weather Roundup
Issued by NWS Sioux Falls, SD

Home | Current Version | Previous Version | Text Only | Print | Product List | Glossary Off
Versions: 1 2 3 4 5 6 7 8 9 10 11 12 13 14 15 16 17 18 19 20 21 22 23 24 25 26 27 28 29 30 31 32 33 34 35 36 37 38 39 40 41 42 43 44 45 46 47 48 49 50

000
ASUS43 KFSD 231410
RWRFSD

WEATHER ROUNDUP FOR SE SOUTH DAKOTA/SW MINNESOTA/NW IOWA
NATIONAL WEATHER SERVICE SIOUX FALLS SD
800 AM CST THU FEB 23 2017

NOTE: "FAIR" INDICATES FEW OR NO CLOUDS BELOW 12,000 FEET WITH NO
SIGNIFICANT WEATHER AND OR OBSTRUCTIONS TO VISIBILITY.


SDZ038>040-050-052>070-231500-
SOUTHEAST SOUTH DAKOTA

CITY           SKY/WX    TMP DP  RH WIND       PRES   REMARKS
BROOKINGS      CLOUDY    28  24  85 NE12      29.92R WCI  18
CHAMBERLAIN    CLOUDY    31  26  83 NE8       29.91S WCI  23
HURON          MOCLDY    29  26  89 N7        29.95R WCI  22
MADISON        FAIR      28  28 100 NE17      29.89S WCI  16
MITCHELL       MOCLDY    30  27  88 N9        29.92F WCI  22
SIOUX FALLS    CLOUDY    32  27  81 NE14      29.89R WCI  22
WINNER         CLOUDY    29  24  82 N15       29.89R WCI  18
YANKTON        CLOUDY    32  27  80 NE13      29.88F WCI  22
$$

MNZ071-072-080-081-089-090-097-098-231500-
SOUTHWEST MINNESOTA

CITY           SKY/WX    TMP DP  RH WIND       PRES   REMARKS
FAIRMONT       CLOUDY    31  28  89 N10       29.88R WCI  22
JACKSON          N/A     30  28  93 NE16      29.87R WCI  19
LUVERNE        CLOUDY    32  27  80 NE14G23   29.89R WCI  22
MARSHALL       PTCLDY    30  27  88 N10       29.94R WCI  21
MONTEVIDEO     CLOUDY    28  28 100 NE12      29.96R WCI  18
PIPESTONE      CLOUDY    30  23  74 NE15      29.89R WCI  19
REDWOOD FALLS  CLOUDY    31  24  75 N7        29.92R WCI  24
TRACY          CLOUDY    31  29  92 N12       29.91R WCI  21
WINDOM         PTCLDY    30  27  86 N13       29.89R WCI  20
WORTHINGTON    CLOUDY    29  26  89 N21       29.88R WCI  16
$$

IAZ001>003-012>014-020>022-031-032-NEZ013-014-SDZ071-231500-
NORTHWEST IOWA

CITY           SKY/WX    TMP DP  RH WIND       PRES   REMARKS
CHEROKEE       CLOUDY    34  33  94 NE6       29.86R WCI  29
DENISON        CLOUDY    36  32  87 NE15G21   29.82S
ESTHERVILLE    CLOUDY    30  29  96 NE20      29.85S WCI  17
LE MARS        CLOUDY    34  30  86 NE12      29.89R WCI  25
ORANGE CITY    CLOUDY    32  28  86 NE9       29.88R WCI  24
SHELDON        CLOUDY    32  32 100 NE16G24   29.87R WCI  21
SIOUX CITY     CLOUDY    37  32  82 NE10      29.87R
SPENCER        CLOUDY    32  29  88 NE17      29.87R WCI  21
STORM LAKE     CLOUDY    34  32  93 NE18      29.84R WCI  23
$$

ABBREVIATIONS USED IN REMARKS
   TC - TEMPERATURE IN CELSIUS
  WCI - WIND CHILL INDEX
   HX - HEAT INDEX
  VSB - VISIBILITY





USA.gov is the U.S. government's official web portal to all federal, state and local government web resources and services.